Tracking 30995 objects as of 7-Jul-2025
HD Live streaming from Space Station
objects crossing your sky now

STARLINK-34043

Track STARLINK-34043 now!
10-day predictions
STARLINK-34043 is classified as:


NORAD ID: 63823
Int'l Code: 2025-092V
Perigee: 449.4 km
Apogee: 452.7 km
Inclination: 43.0 °
Period: 93.5 minutes
Semi major axis: 6822 km
RCS: Unknown
Launch date: May 4, 2025
Source: United States (US)
Launch site: AIR FORCE EASTERN TEST RANGE (AFETR)
Your satellite tracking list
Your tracking list is empty




NASA's NSSDC Master Catalog

Two Line Element Set (TLE):
1 63823U 25092V   25187.83977797  .00046737  00000-0  11176-2 0  9995
2 63823  42.9999 117.6069 0002379 289.7864  70.2736 15.40743340 11054
Source of the keplerian elements: AFSPC